This is the latest recevied weather packets stored in our database for station/object WD7OO. If no packets are shown the sender has not sent any weather packets the latest 10 day(s).
| Time | Temp. | Humidity | Pressure | Rain* | Wind** | Luminosity | Snow |
|---|---|---|---|---|---|---|---|
| 1787843591 | 24.44° C | 77% | 1016.4 hPa | 0 mm | - | 755 W/m² | - |
| 1787843287 | 23.89° C | 78% | 1016.6 hPa | 0 mm | - | 688 W/m² | - |
| 1787842983 | 23.89° C | 75% | 1016.7 hPa | 0 mm | - | 640 W/m² | - |
| 1787842682 | 23.89° C | 79% | 1016.4 hPa | 0 mm | - | 662 W/m² | - |
| 1787842378 | 23.89° C | 78% | 1016.6 hPa | 0 mm | - | 691 W/m² | - |
| 1787842072 | 23.89° C | 79% | 1016.6 hPa | 0 mm | - | 662 W/m² | - |
| 1787841767 | 23.89° C | 79% | 1016.6 hPa | 0 mm | - | 139 W/m² | - |
| 1787841463 | 23.33° C | 79% | 1016.3 hPa | 0 mm | - | 278 W/m² | - |
| 1787841156 | 23.33° C | 81% | 1016.3 hPa | 0 mm | - | 585 W/m² | - |
| 1787840852 | 23.33° C | 83% | 1016.2 hPa | 0 mm | - | 502 W/m² | - |
| 1787840547 | 23.33° C | 81% | 1016.1 hPa | 0 mm | - | 499 W/m² | - |
| 1787840242 | 23.33° C | 82% | 1015.9 hPa | 0 mm | - | 471 W/m² | - |
| 1787839941 | 23.33° C | 83% | 1016 hPa | 0 mm | - | 441 W/m² | - |
| 1787839637 | 23.33° C | 84% | 1016.1 hPa | 0 mm | - | 394 W/m² | - |
| 1787839337 | 23.33° C | 84% | 1016 hPa | 0 mm | - | 356 W/m² | - |
| 1787839036 | 22.78° C | 84% | 1016 hPa | 0 mm | - | 344 W/m² | - |
| 1787838736 | 22.78° C | 88% | 1016 hPa | 0 mm | - | 285 W/m² | - |
| 1787838435 | 22.22° C | 89% | 1015.8 hPa | 0 mm | - | 278 W/m² | - |
| 1787838135 | 21.11° C | 93% | 1016 hPa | 0 mm | - | 242 W/m² | - |
| 1787837829 | 21.11° C | 96% | 1015.9 hPa | 0 mm | - | 237 W/m² | - |
| 1787837524 | 20.56° C | 99% | 1015.8 hPa | 0 mm | - | 242 W/m² | - |
| 1787837223 | 20° C | 99% | 1015.8 hPa | 0 mm | - | 199 W/m² | - |
| 1787836923 | 20° C | 99% | 1015.9 hPa | 0 mm | - | 171 W/m² | - |
| 1787836618 | 20° C | 99% | 1015.9 hPa | 0 mm | - | 209 W/m² | - |
| 1787836317 | 20° C | 99% | 1015.8 hPa | 0 mm | - | 181 W/m² | - |
* Rain latest hour (hover to see other rain measurements)
** Current wind speed in m/s (hover to see current wind gust speed)